[[{"header":{"parameterUnit":"m.s-1","parameterCategory":1,"la1":30.2992,"la2":30.254,"lo1":-89.0895,"lo2":-89.0443,"dy":0.0025,"dx":0.0025,"nx":19,"ny":19,"refTime":"2026-03-11T09:00:00:Z","depth":0,"parameterNumber":2,"parameterNumberName":"U-component_of_WINDS"},"data":[0,0,0,-1.8047,-1.8048,-1.8113,-1.8114,-1.8199,-1.82,0,0,0,0,0,0,0,0,0,0,0,-1.8026,-1.8026,-1.8046,-1.8048,-1.8113,-1.8114,-1.8199,-1.82,0,0,0,0,0,0,0,0,0,0,0,-1.8026,-1.8026,-1.8027,-1.8048,-1.8113,-1.8114,-1.8199,-1.815,0,0,0,0,0,0,0,0,0,0,-1.8086,-1.8065,-1.8026,-1.8027,-1.8049,-1.8113,-1.8114,-1.8147,-1.8153,-1.817,0,-1.8182,0,-1.8192,-1.8206,-1.8206,0,0,0,-1.805,-1.806,-1.8079,-1.8027,-1.8049,-1.8113,-1.8084,-1.815,-1.8156,-1.8177,-1.8184,-1.8187,-1.8194,-1.8206,-1.8207,-1.8294,-1.8295,0,0,-1.8046,-1.8038,-1.8075,-1.8083,-1.807,-1.8082,-1.8086,-1.8154,-1.8162,-1.8184,-1.8189,-1.8195,-1.8207,-1.8207,-1.8294,-1.8294,0,0,0,-1.8035,-1.8035,-1.8052,-1.8079,-1.8091,-1.8084,-1.8089,-1.8159,-1.8165,-1.819,-1.8196,-1.8207,-1.8208,-1.8294,-1.8294,-1.8301,0,0,0,-1.8033,-1.8028,-1.805,-1.8046,-1.8089,-1.8125,-1.8092,-1.816,-1.8168,-1.8196,-1.8207,-1.8209,-1.8293,-1.8294,-1.83,-1.8306,0,0,0,-1.8022,-1.8027,-1.8036,-1.8045,-1.8072,-1.8124,-1.8134,-1.8162,-1.8172,-1.8206,-1.8209,-1.8293,-1.8294,-1.8299,-1.8305,-1.8327,0,0,0,-1.8009,-1.8042,-1.8036,-1.8075,-1.8072,-1.8127,-1.8134,-1.8176,-1.8206,-1.8208,-1.8293,-1.8294,-1.8299,-1.8304,-1.8326,-1.8343,-1.835,0,0,-1.8046,-1.8046,-1.807,-1.8066,-1.812,-1.8118,-1.8174,-1.8211,-1.8223,-1.8271,-1.8273,-1.83,-1.8305,-1.8326,-1.8389,-1.8393,0,0,0,-1.8079,-1.8096,-1.8112,-1.8139,-1.8167,-1.8192,-1.8221,-1.8235,-1.8275,-1.8245,-1.8315,-1.8317,-1.8331,-1.834,-1.8344,-1.8356,-1.8298,-1.8298,-1.8298,-1.8119,-1.8131,-1.8172,-1.8193,-1.8219,-1.8249,-1.8272,-1.8297,-1.8303,-1.8319,-1.8333,-1.8369,-1.8379,-1.8382,-1.8395,-1.8344,-1.8344,-1.8344,-1.8344,-1.8174,-1.82,-1.8207,-1.8248,-1.8262,-1.8299,-1.8329,-1.8332,-1.837,-1.8359,-1.8372,-1.8359,-1.8387,-1.8399,-1.8344,-1.8344,-1.8344,-1.8344,-1.8344,-1.8202,-1.8217,-1.8231,-1.8272,-1.8303,-1.8324,-1.8359,-1.8371,-1.8383,-1.8395,-1.8412,-1.8412,-1.8414,-1.8402,-1.8402,-1.8402,-1.8403,-1.8403,-1.8403,-1.8225,-1.8241,-1.8268,-1.83,-1.8319,-1.8346,-1.8377,-1.8397,-1.8423,-1.843,-1.843,-1.8435,-1.8387,-1.8375,-1.8405,-1.8404,-1.8404,-1.8404,-1.8404,-1.8276,-1.8266,-1.8307,-1.8326,-1.8365,-1.8396,-1.841,-1.8451,-1.847,-1.8487,-1.849,-1.8452,-1.8454,-1.8451,-1.8441,-1.8486,-1.8486,-1.8486,-1.8486,-1.83,-1.8301,-1.8346,-1.8376,-1.8407,-1.8424,-1.8473,-1.8498,-1.8522,-1.8535,-1.8531,-1.8519,-1.8515,-1.8519,-1.8514,-1.8505,-1.8566,-1.8566,-1.8566,-1.8332,-1.8337,-1.8375,-1.8396,-1.8428,-1.8456,-1.8502,-1.8539,-1.8565,-1.857,-1.8546,-1.8543,-1.8523,-1.8516,-1.852,-1.8512,-1.8496,0,0]},{"header":{"parameterUnit":"m.s-1","parameterCategory":1,"la1":30.2992,"la2":30.254,"lo1":-89.0895,"lo2":-89.0443,"dy":0.0025,"dx":0.0025,"nx":19,"ny":19,"refTime":"2026-03-11T09:00:00:Z","depth":0,"parameterNumber":3,"parameterNumberName":"V-component_of_WINDS"},"data":[0,0,0,5.0671,5.0673,5.0792,5.0793,5.094,5.0941,0,0,0,0,0,0,0,0,0,0,0,5.0632,5.0633,5.0671,5.0674,5.0792,5.0793,5.094,5.0941,0,0,0,0,0,0,0,0,0,0,0,5.0632,5.0633,5.0634,5.0674,5.0792,5.0793,5.0939,5.0852,0,0,0,0,0,0,0,0,0,0,5.0737,5.0698,5.0633,5.0634,5.0675,5.0792,5.0793,5.0847,5.0857,5.0884,0,5.0906,0,5.0926,5.0951,5.0951,0,0,0,5.0676,5.069,5.0725,5.0634,5.0676,5.0792,5.0739,5.0853,5.0864,5.0897,5.0908,5.0914,5.0929,5.0952,5.0952,5.11,5.11,0,0,5.067,5.0652,5.0717,5.0732,5.0713,5.0736,5.0743,5.086,5.0871,5.0909,5.0918,5.0931,5.0952,5.0954,5.1099,5.11,0,0,0,5.0649,5.0647,5.068,5.0726,5.0747,5.0739,5.0748,5.0866,5.0878,5.0919,5.0933,5.0953,5.0955,5.1099,5.1099,5.1111,0,0,0,5.0645,5.0635,5.0677,5.0667,5.0745,5.0808,5.0751,5.087,5.0884,5.0932,5.0953,5.0956,5.1098,5.1099,5.111,5.112,0,0,0,5.0626,5.0633,5.0649,5.0665,5.0716,5.0807,5.0826,5.0874,5.0892,5.0951,5.0957,5.1098,5.1099,5.1108,5.1117,5.1155,0,0,0,5.0599,5.0656,5.0648,5.0717,5.0715,5.0813,5.0825,5.0899,5.0951,5.0954,5.1098,5.1099,5.1108,5.1116,5.1153,5.1185,5.1195,0,0,5.066,5.0662,5.0704,5.0701,5.0796,5.0796,5.0893,5.0957,5.0979,5.1058,5.1062,5.111,5.1117,5.1155,5.126,5.1269,0,0,0,5.0717,5.0747,5.0776,5.0826,5.0877,5.0923,5.0974,5.0999,5.1067,5.1016,5.1134,5.1139,5.1161,5.1177,5.1184,5.1206,5.1105,5.1105,5.1105,5.0777,5.0803,5.0875,5.0917,5.0964,5.1019,5.106,5.1103,5.1113,5.1141,5.1165,5.1226,5.1244,5.1249,5.1272,5.1183,5.1183,5.1183,5.1183,5.087,5.0918,5.0933,5.1009,5.1037,5.1101,5.1156,5.1162,5.1227,5.1209,5.1231,5.121,5.1258,5.1279,5.1184,5.1184,5.1184,5.1183,5.1183,5.0913,5.0941,5.097,5.1047,5.1103,5.1143,5.1205,5.1227,5.1249,5.127,5.13,5.13,5.1304,5.1283,5.1283,5.1283,5.1283,5.1283,5.1284,5.0947,5.098,5.1029,5.1091,5.1127,5.1178,5.1235,5.1272,5.1318,5.133,5.133,5.134,5.1257,5.1236,5.1287,5.1286,5.1286,5.1286,5.1285,5.1033,5.1018,5.1095,5.1131,5.1207,5.1263,5.1292,5.1365,5.1398,5.1429,5.1435,5.1369,5.1373,5.1367,5.1351,5.1428,5.1428,5.1428,5.1428,5.1071,5.1076,5.1161,5.1218,5.1277,5.1312,5.14,5.1446,5.1491,5.1514,5.1506,5.1485,5.1479,5.1486,5.1478,5.1463,5.1567,5.1568,5.1568,5.1127,5.1139,5.1209,5.1253,5.1315,5.1368,5.1452,5.1519,5.1566,5.1574,5.1533,5.1527,5.1494,5.1482,5.1489,5.1475,5.1448,0,0]}]]